Theta_e
316 316 316 316 316 317 318 318 318 318 318 318 318 318 319 319 319 319 319 319 320 320 320 320 320 320 321 321 321 321 321 314 315 316 314 316 323 328 330 334 334 336 332 312 307 306 305 305 306 307 304 303 301 300 302 303 308 303 297 297 296 298 299 303 303 304 307 306 309 312 314 312 309 314 316 323 319 318 319 319 322 325 323 323 324 327 327 328
316 316 316 316 316 317 317 317 318 318 318 318 318 318 319 319 319 319 319 320 320 320 320 320 320 321 321 321 321 322 318 315 313 314 314 323 332 332 335 334 336 333 323 304 303 304 304 304 306 306 301 298 303 301 311 307 310 299 297 298 296 300 305 311 310 311 308 306 311 313 314 312 311 314 316 313 313 316 315 318 320 319 321 323 325 326 326 325
315 316 316 316 317 317 317 317 317 317 317 318 318 318 319 319 319 319 319 319 320 320 320 320 320 320 321 321 321 321 317 316 316 312 314 328 330 333 335 334 336 333 307 304 304 305 306 306 308 306 301 305 308 307 312 309 309 306 301 296 299 306 308 314 314 312 312 312 311 311 312 312 313 314 317 312 312 314 312 313 316 316 316 319 321 323 324 325
315 315 316 316 316 317 317 317 317 317 317 318 318 318 318 319 319 319 319 320 320 320 320 320 320 320 321 321 322 319 316 316 311 314 321 331 333 332 332 334 334 330 314 312 312 311 310 309 308 307 304 304 308 311 308 310 305 307 303 299 303 308 306 312 313 313 314 314 312 311 313 312 315 315 317 314 311 311 313 317 316 315 316 318 320 321 323 323
315 315 316 316 316 316 317 317 317 317 317 318 318 318 318 319 319 319 319 319 319 320 320 320 320 320 321 322 322 319 316 296 297 311 311 334 336 334 332 333 334 319 312 314 311 310 311 308 308 305 305 303 308 308 308 310 311 308 305 309 310 309 308 314 315 316 314 315 313 311 310 310 317 316 315 315 309 308 313 316 318 317 318 319 320 322 323 323
315 315 316 316 316 316 316 317 317 317 317 318 318 318 318 318 318 318 319 319 320 320 320 320 321 321 322 321 318 317 311 287 303 307 332 334 334 332 332 334 331 318 314 311 308 309 306 305 305 301 302 304 306 305 309 310 312 302 307 310 311 312 310 313 314 315 315 312 311 310 314 316 314 314 316 313 311 314 320 321 321 320 322 322 323 323 321 322
315 315 316 316 316 316 316 316 317 317 317 317 318 318 318 318 318 319 319 319 320 320 320 321 321 321 322 321 317 316 312 309 317 310 332 334 333 331 335 335 336 316 312 309 309 306 305 305 308 307 307 307 308 308 310 310 312 307 303 310 311 313 311 313 313 315 314 312 312 316 317 313 314 309 317 314 318 319 320 322 322 322 323 323 320 322 321 323
315 315 315 315 316 316 316 316 317 317 317 317 318 318 318 318 318 319 319 320 320 320 320 321 320 320 321 316 316 313 310 308 315 316 334 333 331 331 333 324 321 315 309 306 305 305 306 304 306 309 305 304 307 308 310 308 311 306 305 312 311 313 313 315 314 313 314 314 316 316 312 313 315 314 316 313 316 318 319 322 322 321 322 322 322 320 322 323
315 315 315 315 315 316 316 316 317 317 317 317 318 318 318 318 319 319 319 320 320 320 320 320 321 321 320 315 316 305 304 320 318 314 326 324 323 323 322 312 316 309 309 309 308 307 306 303 308 309 303 306 310 308 310 306 302 311 309 313 312 312 314 315 314 314 314 315 316 313 312 314 315 316 311 314 316 318 321 321 320 320 319 319 320 321 322 324
315 315 315 315 315 316 316 316 317 317 317 318 318 318 318 319 319 319 319 319 320 320 321 321 321 321 318 315 312 300 308 317 313 317 322 319 319 318 316 311 310 308 307 308 309 307 305 308 311 315 314 311 313 309 311 308 304 314 312 312 311 312 312 313 312 312 315 315 315 311 310 311 315 314 306 315 317 319 319 318 319 318 318 319 319 321 321 323
314 314 315 315 315 316 316 316 317 317 317 318 318 318 318 318 318 318 319 319 319 321 321 321 322 319 315 317 308 301 318 313 314 316 320 317 317 312 312 313 312 310 310 308 308 308 315 315 315 317 315 308 313 309 310 310 314 313 311 311 310 311 312 313 312 311 312 313 315 313 310 313 314 313 309 314 318 320 316 318 317 318 318 319 321 320 322 322
314 315 315 315 315 316 316 317 317 317 317 317 317 317 317 318 318 318 318 319 320 321 321 321 321 319 316 315 310 309 316 312 316 317 318 315 314 314 311 311 312 310 309 307 308 315 315 315 315 311 307 316 306 312 310 314 314 311 312 304 307 309 308 312 309 311 313 310 315 315 307 306 309 306 313 316 318 318 317 315 316 317 317 319 319 320 320 322
314 315 315 315 316 316 316 316 316 316 317 316 317 317 317 317 318 318 318 318 320 321 321 322 321 318 316 309 314 322 321 312 315 316 315 313 312 312 313 313 313 312 310 308 309 315 317 317 317 313 315 313 310 305 313 317 313 313 311 305 303 304 303 310 311 312 311 312 315 313 294 299 305 310 314 317 317 317 315 314 315 316 316 317 318 318 320 322
314 314 315 315 316 316 316 316 316 316 316 316 317 317 317 317 318 318 319 319 321 322 322 322 319 317 314 307 320 328 327 313 315 314 311 312 311 311 312 313 314 313 312 309 316 318 319 318 318 315 317 312 308 318 312 312 313 302 307 306 296 296 297 309 310 310 308 314 313 313 296 298 305 311 314 316 316 314 313 314 314 314 315 316 316 318 319 321
314 315 315 315 315 315 315 316 316 316 316 316 317 317 317 317 318 319 319 319 321 323 322 321 318 316 311 315 326 326 343 314 311 311 312 310 310 310 311 312 312 313 312 311 313 319 320 319 316 311 309 316 314 309 305 306 306 306 297 294 298 296 299 307 312 310 305 310 314 311 296 299 306 310 315 316 315 314 312 313 313 314 315 315 316 318 319 319
315 315 315 315 315 315 315 316 316 316 316 317 317 317 317 317 318 319 320 320 321 323 321 317 315 316 310 304 311 333 313 308 309 313 313 313 311 309 312 312 313 312 311 311 318 320 318 316 310 311 312 313 308 303 302 299 301 302 297 296 295 298 299 302 308 311 312 310 313 308 297 303 304 311 314 317 315 313 311 311 312 313 314 316 317 317 317 318
315 315 315 315 315 315 315 315 315 316 316 316 316 316 317 319 319 319 320 320 320 322 319 315 318 318 304 314 323 308 307 310 313 312 312 313 312 312 311 311 309 310 312 311 314 317 315 312 313 311 311 305 305 303 294 292 293 296 300 295 301 298 299 297 307 311 311 310 303 308 303 304 305 310 312 315 314 311 310 310 311 312 313 315 316 316 316 316
314 314 314 315 315 315 315 315 316 316 316 316 315 315 315 318 319 319 317 318 321 320 318 321 317 311 306 315 307 305 311 310 311 312 312 314 313 311 310 309 309 308 308 309 310 307 309 306 308 300 303 305 304 297 291 289 293 292 293 294 295 300 300 299 299 306 309 308 305 305 304 304 306 309 312 312 314 311 310 309 311 313 313 314 316 316 315 315
314 314 314 315 315 315 315 315 316 316 315 314 315 316 317 316 316 317 316 314 314 306 301 307 307 296 296 306 313 314 309 311 313 312 310 311 312 313 311 311 309 306 304 307 304 307 305 303 302 298 295 299 300 299 294 298 300 298 298 296 296 295 297 297 305 309 310 306 303 304 301 303 306 307 310 310 312 309 309 310 310 312 312 313 314 315 313 314
314 314 314 315 315 315 315 315 315 315 315 312 315 315 315 314 306 310 316 316 311 309 305 309 313 313 311 309 310 315 315 312 308 309 311 313 312 310 310 310 309 309 305 301 305 304 305 296 295 293 295 301 304 303 303 304 303 302 301 299 297 297 299 304 306 310 311 305 303 304 304 304 304 306 307 309 311 309 309 309 309 311 312 312 313 313 313 313
314 314 314 315 315 315 315 315 315 314 313 312 311 317 308 309 294 294 307 312 316 316 312 312 314 310 308 311 311 310 306 306 309 308 310 313 311 308 306 308 305 305 301 303 304 307 303 298 295 298 300 302 303 305 306 305 304 301 299 298 296 298 297 303 304 309 312 306 301 306 303 303 304 306 308 309 310 307 308 308 309 310 311 312 313 312 312 312
313 314 314 315 315 314 314 314 312 312 313 310 315 320 322 315 303 304 304 297 303 316 317 315 315 313 316 315 317 311 308 305 305 306 310 311 308 305 303 303 300 297 302 303 300 298 298 294 299 301 303 304 305 306 307 304 302 301 299 298 297 297 302 305 306 309 308 305 299 305 302 302 305 306 308 309 309 308 310 310 310 310 311 312 311 311 311 311
313 314 314 314 314 313 313 312 310 309 311 312 314 317 315 323 324 320 310 301 300 305 312 312 308 307 307 311 312 310 304 302 300 304 307 310 306 305 304 301 299 299 303 301 297 295 295 295 301 304 304 302 304 305 305 304 303 299 297 295 294 300 298 293 303 307 307 304 301 303 301 301 306 308 308 309 310 309 310 311 311 312 312 311 310 311 311 310
313 313 313 314 313 313 312 310 309 312 310 316 317 317 321 321 321 320 311 303 297 307 305 306 306 305 305 306 310 308 304 304 304 303 311 308 303 304 304 302 299 299 299 300 299 297 296 299 304 304 303 302 303 304 303 300 297 300 299 297 297 299 299 299 299 305 307 307 306 303 299 297 302 303 303 307 311 311 311 312 311 313 313 313 312 312 312 310
313 313 312 313 313 312 311 309 310 312 316 315 315 320 322 322 322 319 309 303 302 302 311 311 311 310 310 314 312 306 306 307 308 311 311 308 305 303 301 306 301 297 300 302 300 298 298 303 304 302 301 302 303 301 302 300 296 297 301 301 301 302 301 302 303 301 295 296 304 300 288 289 298 301 302 304 308 308 311 310 310 312 312 312 310 310 312 312
312 312 312 312 312 311 309 314 317 314 315 314 316 320 321 320 320 319 307 297 293 301 308 301 312 305 314 307 310 307 307 302 308 311 312 310 311 305 305 300 301 296 300 301 299 297 298 301 302 300 299 300 303 301 302 302 295 295 297 304 304 304 303 302 300 299 289 289 299 305 287 285 296 298 301 303 305 305 309 309 310 311 311 311 310 311 311 310
311 311 311 311 311 310 312 316 316 311 311 313 320 320 322 322 321 313 303 287 285 300 301 307 307 307 311 308 307 306 293 296 308 310 309 312 307 310 301 297 302 304 305 301 296 294 302 299 299 300 299 298 298 296 301 301 296 293 301 305 306 304 301 301 301 297 292 301 303 303 295 288 288 297 302 303 303 304 306 308 309 310 311 311 311 311 311 311
311 311 310 310 310 309 310 308 311 310 313 316 320 320 324 324 317 310 295 281 284 304 303 304 308 314 311 310 309 303 303 306 301 304 308 308 308 304 302 299 300 301 303 296 288 295 300 297 297 298 297 294 295 298 301 302 296 297 304 307 305 304 303 302 299 296 296 297 290 295 300 289 286 292 302 304 302 303 305 307 308 309 311 311 311 312 312 313
310 310 310 309 310 308 310 309 310 309 315 318 319 320 327 319 311 301 285 281 299 302 313 303 313 309 306 307 305 305 305 307 300 303 307 308 309 304 298 299 302 304 304 299 294 297 302 300 301 300 296 296 300 300 302 302 298 301 307 308 307 306 305 302 297 296 296 290 286 293 298 285 281 290 298 302 302 302 304 307 308 310 310 311 311 312 313 313
310 310 310 309 309 307 309 307 307 315 317 318 319 322 329 314 302 292 282 281 304 295 305 304 302 301 304 300 300 303 301 304 305 306 306 303 306 306 305 308 304 302 301 303 300 299 301 308 308 301 298 300 299 302 303 302 302 306 307 304 303 302 300 299 296 292 289 285 287 295 298 292 282 290 297 298 300 304 305 306 309 310 311 312 312 312 312 313
309 309 309 308 310 312 307 304 308 316 317 319 320 324 316 306 292 281 282 290 305 301 306 300 299 304 299 298 294 301 302 302 302 303 300 304 301 302 304 302 303 297 296 296 297 301 303 302 299 302 309 305 302 303 305 306 305 304 299 298 297 294 294 292 291 290 286 282 288 295 298 296 284 285 296 303 305 306 306 305 307 308 309 311 312 313 313 313
308 308 308 306 310 310 306 305 310 313 317 318 323 317 307 291 290 284 284 306 294 297 300 301 303 300 299 299 298 298 297 301 301 300 297 296 295 295 297 294 296 287 287 289 292 298 297 297 302 304 309 305 301 299 300 302 301 301 299 296 289 284 285 284 284 284 283 282 290 297 298 293 290 292 299 303 304 306 308 309 308 309 309 311 312 313 314 312
308 307 307 308 308 307 309 310 312 315 316 319 318 308 296 284 283 288 293 299 291 303 301 309 304 304 301 298 295 299 300 297 301 300 299 299 297 298 300 298 301 292 287 291 292 291 293 299 302 303 303 307 302 295 294 294 297 297 295 288 285 281 280 277 278 280 282 289 297 297 300 290 291 295 300 302 305 308 309 310 311 311 310 311 313 313 313 312
307 306 305 309 308 311 313 314 314 314 315 316 307 299 292 285 285 309 300 300 300 307 307 304 305 306 304 295 297 302 296 300 299 297 299 297 296 294 296 302 302 300 295 292 291 290 284 288 293 299 295 304 301 298 296 296 295 296 298 291 287 284 281 278 279 278 279 282 289 300 292 284 288 290 301 305 308 308 311 311 312 312 312 312 314 314 312 312
306 305 305 307 309 312 312 315 315 315 317 308 302 294 286 286 290 293 294 299 303 306 304 308 304 302 299 299 300 300 299 297 301 299 296 295 293 293 296 296 303 301 297 291 294 291 292 288 295 301 302 303 302 305 305 301 296 296 300 296 292 289 287 282 282 280 282 285 285 290 286 290 291 299 304 305 307 307 310 310 311 311 311 312 312 312 311 312
309 312 309 313 318 320 319 318 316 318 311 304 293 285 288 294 293 301 298 309 307 304 304 305 303 297 294 294 298 299 301 299 300 295 295 296 297 297 301 299 299 301 295 286 292 290 292 288 298 300 304 303 303 306 306 301 289 295 297 289 293 298 294 282 285 289 286 282 283 283 290 293 297 299 301 304 305 306 308 308 310 309 311 311 311 312 312 311
306 312 309 316 320 323 326 322 323 318 309 302 293 287 295 304 305 307 309 307 306 307 304 296 297 296 294 293 294 295 298 300 298 293 292 299 294 299 300 300 303 303 302 298 295 297 289 287 297 298 298 302 306 307 306 305 301 296 290 294 300 302 297 288 283 281 279 280 280 289 288 287 287 286 298 302 302 303 306 307 309 309 310 310 311 311 312 311
310 313 314 314 315 318 320 321 318 312 307 299 290 301 309 303 312 309 311 308 308 309 300 296 296 301 295 294 291 295 297 293 293 295 293 296 292 301 298 298 302 303 303 301 292 296 294 287 293 299 300 302 306 304 301 304 305 299 294 302 295 285 288 287 284 279 279 279 278 283 288 287 286 288 295 299 300 301 304 306 307 308 309 309 310 311 311 311
313 311 305 311 318 321 321 319 313 307 299 293 291 293 305 309 312 309 309 310 310 308 299 299 296 300 299 294 296 297 297 293 296 295 292 294 292 301 299 299 299 302 302 301 295 296 296 285 289 298 299 299 298 297 289 293 301 303 301 299 299 292 285 286 285 285 283 278 280 280 285 283 291 290 298 299 301 303 304 305 307 308 309 310 310 311 310 309
307 303 302 315 318 320 322 317 308 302 298 291 293 301 317 308 309 311 309 309 306 305 302 302 304 297 300 298 300 296 299 296 295 295 295 297 295 303 301 301 299 302 302 299 297 299 294 292 285 292 298 297 291 294 291 293 293 295 295 292 295 296 297 293 293 289 282 279 276 278 279 283 288 298 301 301 302 304 306 306 307 308 310 310 311 311 310 309
310 303 302 314 318 319 315 309 302 300 297 299 305 310 310 309 311 309 310 311 309 313 307 304 302 298 299 297 296 299 298 296 296 294 296 297 295 290 300 300 303 300 298 298 298 296 289 290 285 288 292 289 289 294 297 297 299 294 291 289 291 290 292 285 283 291 290 284 281 280 278 281 293 306 303 303 304 306 308 307 307 308 309 310 311 311 310 309
301 298 303 316 319 316 309 301 300 301 299 297 300 308 308 315 308 307 308 309 309 306 310 306 306 304 301 300 299 299 297 294 297 295 297 292 298 297 301 302 302 300 297 294 296 300 294 292 288 288 290 292 295 300 300 301 300 297 295 293 295 289 288 280 283 284 285 288 290 285 282 285 294 302 304 305 306 308 308 309 308 309 309 310 311 312 311 310
300 297 310 315 317 315 303 296 296 297 299 300 310 312 312 309 307 309 307 308 306 307 306 305 305 303 303 301 300 298 297 295 296 295 297 298 298 301 302 299 299 301 299 297 299 298 319 288 286 290 292 296 299 299 301 302 297 295 296 297 294 293 290 286 283 285 284 288 285 282 280 284 294 303 305 306 307 308 309 309 308 309 310 310 311 311 310 309
307 306 308 316 321 312 304 292 289 288 299 308 312 309 313 309 309 307 306 307 308 306 303 304 305 303 300 301 299 297 297 288 296 295 295 298 296 302 302 305 305 304 298 299 294 300 290 289 291 282 280 284 287 292 294 298 297 292 293 294 297 296 297 294 293 288 284 289 288 283 279 281 293 304 305 306 306 306 307 308 309 309 309 310 311 310 310 310
309 310 309 311 316 312 303 298 295 292 301 306 309 307 309 310 309 309 308 307 309 305 304 301 303 302 301 301 299 298 298 295 292 298 296 297 299 301 304 305 306 303 311 309 318 303 292 290 286 282 282 280 280 279 284 288 292 294 297 296 297 296 295 291 287 285 282 288 289 282 281 287 295 302 303 304 305 305 306 307 308 310 309 309 309 310 310 310
304 292 297 301 309 310 307 306 303 301 300 305 297 303 310 305 309 311 311 308 310 307 301 303 301 301 300 299 298 297 297 298 294 294 293 295 297 300 302 306 306 306 317 330 315 303 296 296 289 285 281 281 282 286 292 294 292 289 294 296 296 296 295 293 287 283 285 286 287 288 289 292 297 299 301 302 304 304 304 305 307 307 308 308 309 310 310 310
307 298 291 294 302 302 305 304 302 301 294 302 294 304 304 307 307 308 312 304 305 305 305 302 302 299 299 298 297 297 298 296 298 296 297 296 298 298 303 305 306 312 325 314 314 300 292 290 296 292 291 292 293 295 298 297 293 296 294 294 296 295 294 289 283 287 290 288 285 290 294 294 294 297 300 302 303 304 304 306 307 307 307 308 309 310 314 310
292 297 306 306 300 288 294 293 302 301 305 305 299 308 305 305 306 302 308 309 304 304 299 299 303 304 301 301 297 290 295 298 295 295 301 299 297 300 299 300 303 316 311 303 306 298 292 289 296 296 295 297 298 298 300 298 296 294 295 294 294 295 294 291 291 292 291 285 284 291 294 294 294 298 301 303 305 305 305 306 308 309 308 308 309 309 309 309
300 302 305 311 302 301 304 305 307 306 307 307 302 307 303 305 303 306 306 305 306 300 301 290 298 302 304 303 299 297 299 291 289 297 299 300 299 297 296 299 302 302 302 301 303 300 293 291 296 298 296 298 298 298 298 295 296 297 295 295 295 295 294 293 294 294 292 290 290 293 296 296 298 300 302 304 306 306 306 307 307 308 308 309 309 309 309 309
307 302 303 313 309 307 306 305 307 306 303 309 299 302 306 304 302 305 308 307 297 299 303 300 298 302 303 303 301 297 301 298 299 296 301 301 299 299 296 297 296 300 301 301 303 301 295 287 298 297 291 291 296 298 298 296 296 294 294 295 295 295 295 295 296 296 296 295 296 297 295 296 300 302 304 305 305 306 306 306 307 308 308 309 308 308 309 309
311 315 316 311 307 305 306 304 304 301 296 299 299 302 306 306 305 308 306 309 304 304 306 301 300 303 305 302 301 303 303 304 303 303 303 299 294 300 298 299 299 297 302 301 302 302 296 288 295 293 288 288 294 296 296 296 295 295 292 293 293 294 293 294 292 295 294 293 293 294 294 294 299 303 304 304 305 306 305 305 306 306 308 308 307 306 306 306
314 315 319 314 301 306 303 303 302 300 291 300 306 307 306 305 307 307 298 304 308 307 306 304 304 300 299 299 301 304 306 307 305 304 308 307 304 302 302 303 300 297 297 299 301 296 293 290 290 285 286 281 291 296 296 292 289 288 288 293 294 295 296 297 297 299 297 296 292 289 293 297 300 302 302 302 304 305 304 304 303 304 304 306 306 306 306 306
Wind_Speed
7 7 8 8 8 9 9 9 9 9 9 9 9 9 9 9 9 9 9 9 9 10 9 10 10 10 11 11 10 9 8 3 5 2 3 11 8 7 6 6 6 5 7 1 1 1 1 2 2 1 0 2 1 1 3 3 2 3 3 6 1 1 2 2 3 5 1 4 3 0 1 7 6 0 1 2 7 8 7 13 9 9 11 9 8 9 7 7
7 7 8 8 9 9 9 9 9 9 9 9 9 9 9 9 9 9 9 9 9 9 9 8 9 10 10 9 9 9 6 3 3 5 13 8 6 7 8 4 4 9 8 2 4 2 1 1 1 1 4 3 3 2 1 1 2 4 3 4 5 2 1 2 3 3 6 2 3 2 1 2 4 2 1 6 3 7 12 12 9 8 10 10 6 5 6 4
7 8 8 8 9 9 9 10 10 9 9 10 9 9 9 9 9 8 9 8 8 8 8 8 8 8 9 8 8 8 6 4 2 5 11 14 18 12 8 5 6 8 5 2 2 2 4 2 1 4 1 3 1 3 1 0 3 3 6 3 0 2 1 1 5 3 1 9 7 5 0 4 1 1 2 5 7 4 11 11 9 5 5 6 5 3 4 3
7 8 8 9 9 9 10 10 9 10 10 10 9 9 9 9 9 8 8 8 8 7 7 8 8 7 8 8 6 3 3 2 2 5 5 9 11 14 12 7 9 6 1 0 0 0 1 4 5 1 2 3 3 2 3 4 3 1 5 1 3 3 3 1 5 6 7 3 4 3 2 6 1 1 1 8 12 5 4 3 3 9 6 5 4 4 3 3
8 8 9 9 9 10 10 10 10 10 10 10 9 9 9 9 8 8 7 7 7 7 7 7 7 8 6 6 7 2 1 2 2 3 5 3 9 10 11 7 5 2 2 1 2 3 2 4 1 3 3 1 1 2 3 3 5 5 2 1 1 3 6 1 3 6 4 5 5 3 5 6 2 5 3 2 10 4 2 2 4 3 4 5 5 5 4 3
8 9 9 9 10 10 11 11 11 11 10 10 10 9 9 9 8 7 7 7 6 6 6 6 7 7 6 4 2 3 0 3 3 3 5 7 9 8 7 7 9 4 2 1 1 0 3 4 7 4 1 3 3 7 1 3 2 6 3 3 4 3 6 2 5 3 5 4 3 2 3 2 3 6 4 10 8 2 3 3 3 3 4 3 3 5 4 3
9 9 10 10 10 11 11 11 11 11 10 10 10 9 9 8 8 7 7 6 6 6 6 5 5 6 6 4 2 1 1 6 3 8 4 8 7 9 8 8 5 3 3 1 2 2 4 7 2 5 6 6 5 8 6 8 8 8 2 1 6 5 6 5 5 5 5 6 4 3 3 4 6 11 2 9 6 4 3 3 2 4 5 3 4 3 4 3
9 9 10 10 11 11 11 11 11 11 10 10 10 9 8 8 7 7 7 6 5 6 4 4 4 5 4 3 1 2 1 6 12 5 8 9 5 5 7 3 5 4 3 6 3 3 3 2 4 6 6 5 4 6 2 13 6 5 3 0 3 6 4 5 5 6 6 6 3 5 5 4 6 7 5 6 7 3 2 4 3 2 3 2 1 2 2 2
10 10 10 11 11 11 11 11 11 11 11 10 9 9 8 7 7 7 7 6 6 5 5 5 5 3 2 2 0 2 4 6 6 5 8 8 5 5 6 2 7 4 2 2 6 6 3 2 1 2 3 7 2 8 1 4 4 2 2 2 3 5 5 5 7 6 5 2 5 10 9 7 10 9 8 5 6 3 5 2 2 2 6 5 3 3 2 4
10 10 11 11 11 11 11 11 11 11 10 10 9 8 8 8 7 7 6 6 7 6 6 5 5 3 1 1 1 3 4 4 3 6 8 8 6 5 5 7 6 6 2 6 2 5 6 2 11 11 15 9 4 6 5 10 3 2 5 5 7 5 6 6 5 6 6 3 5 10 8 8 1 3 3 2 4 1 4 5 1 1 5 5 5 3 2 2
10 11 11 11 12 12 11 11 11 11 10 9 9 8 8 8 8 7 6 6 7 7 5 5 5 4 2 2 3 3 6 4 1 4 7 7 7 6 9 7 6 2 2 6 8 6 13 15 12 7 6 3 7 7 6 5 7 6 9 9 9 9 8 4 7 7 5 2 2 4 6 4 3 4 4 4 5 2 6 8 7 3 4 6 6 6 1 1
10 11 11 11 11 11 11 11 11 11 10 9 9 8 9 9 8 8 7 7 7 6 7 7 5 3 2 0 2 7 5 5 5 5 7 9 6 11 10 7 5 6 3 1 3 6 5 9 7 4 5 4 7 8 6 4 2 2 2 8 3 5 7 7 6 5 5 3 5 1 6 7 5 4 4 5 2 3 3 4 7 6 6 6 6 3 1 3
10 11 11 11 11 11 11 11 11 10 10 9 8 7 9 9 9 8 7 7 8 7 7 6 5 3 1 1 9 8 5 3 7 8 4 6 4 4 5 3 5 6 6 3 2 3 8 8 11 14 7 6 6 1 6 3 4 3 5 5 5 6 6 5 4 5 5 3 4 3 4 2 2 2 3 2 4 4 3 8 4 7 8 3 3 2 2 2
10 11 11 11 11 11 11 11 11 11 10 9 7 8 9 10 10 8 6 8 6 8 8 6 3 2 0 4 5 3 9 4 3 3 7 5 3 6 4 5 6 4 3 4 3 6 9 9 16 12 5 8 6 9 7 1 3 4 1 4 3 4 2 3 1 0 3 2 3 5 4 2 1 1 2 3 3 5 5 4 5 5 6 7 6 6 5 4
10 10 11 10 11 11 11 11 11 11 11 10 8 8 9 11 10 7 7 9 8 7 8 5 1 0 0 6 5 8 7 6 6 10 9 8 6 3 7 6 7 5 5 10 5 7 10 12 10 5 4 5 14 7 4 2 2 1 3 4 3 5 0 2 2 5 3 4 4 3 5 2 2 1 0 0 2 3 5 4 4 4 4 3 4 6 7 5
10 10 10 10 11 11 12 12 12 11 9 8 9 8 10 11 9 6 8 7 7 7 5 1 1 1 2 6 0 6 7 6 11 14 9 11 10 7 10 10 4 6 5 4 9 5 5 4 8 7 11 6 6 7 5 4 2 2 4 2 3 4 4 2 2 5 8 3 1 2 4 3 1 2 1 1 3 3 4 4 4 4 4 3 5 5 5 6
10 10 10 11 11 12 12 13 12 11 9 9 8 9 8 6 1 5 8 4 5 4 3 1 2 1 1 2 4 4 5 10 5 5 6 7 10 9 4 1 4 3 1 3 8 6 2 7 3 4 2 4 5 6 6 5 2 2 1 3 0 6 4 1 2 6 7 3 1 1 5 2 1 3 1 1 3 3 3 3 3 3 2 3 3 5 6 6
11 11 12 12 12 12 13 13 13 12 10 10 8 5 2 4 2 8 4 2 3 4 3 2 2 1 6 3 2 9 8 9 6 8 11 10 9 6 2 4 2 3 3 1 0 2 1 4 2 3 3 3 3 1 2 0 7 4 2 5 3 2 3 6 5 7 8 1 1 3 4 1 2 1 0 0 2 3 2 3 2 2 3 3 4 4 6 6
11 12 12 12 12 12 12 12 13 11 10 12 12 4 5 2 2 4 2 2 2 1 0 1 2 2 3 6 9 5 2 7 4 7 8 7 6 8 7 2 4 7 1 1 3 3 2 5 4 4 2 3 6 6 3 3 8 9 7 5 5 7 3 3 1 5 5 2 6 3 4 2 2 2 1 1 0 2 2 1 1 1 3 3 3 4 5 5
12 12 12 12 12 12 12 12 12 11 8 6 2 5 3 1 1 0 1 2 3 4 2 4 5 4 9 9 4 3 1 4 5 7 5 7 4 8 3 3 2 4 5 4 1 3 3 4 4 5 6 9 10 9 3 6 9 9 7 6 6 4 3 5 5 4 5 6 3 3 2 2 3 3 3 2 1 2 2 3 3 3 4 3 4 4 6 7
12 12 12 12 12 11 10 12 12 9 3 1 2 2 2 5 3 2 2 6 5 7 9 6 12 9 9 4 5 1 2 3 3 5 7 2 2 5 1 4 3 0 2 3 5 2 4 1 5 8 8 10 9 7 10 8 8 9 9 8 3 3 6 5 7 3 1 3 1 3 4 1 2 2 2 2 3 4 5 5 4 5 5 4 5 5 7 6
12 12 12 12 12 12 10 10 10 8 3 3 1 2 2 3 5 3 3 3 3 11 10 14 6 7 8 9 13 7 2 2 4 4 3 3 3 6 2 4 3 5 1 1 3 2 1 5 9 8 7 4 5 12 12 13 9 5 8 6 7 6 6 3 8 6 2 4 2 2 5 1 1 2 2 3 5 3 5 6 5 7 6 4 5 6 7 7
12 12 12 12 12 12 10 9 7 4 1 1 2 1 5 5 4 4 4 0 6 3 8 9 5 10 10 9 6 5 3 1 5 3 3 3 3 7 4 3 4 2 2 4 6 1 1 6 13 10 2 5 7 11 11 8 5 8 6 6 7 10 9 3 3 8 5 1 5 3 6 1 2 2 2 5 5 3 4 5 5 5 6 5 7 9 9 8
12 12 12 12 12 11 10 9 8 1 2 3 3 7 5 1 4 8 3 1 3 4 4 6 7 5 8 8 4 8 6 3 3 4 2 5 7 3 3 6 5 5 7 7 8 8 8 9 4 2 5 8 8 9 12 7 5 1 5 5 7 6 2 6 6 4 5 7 5 8 5 2 2 2 2 3 5 4 5 4 3 3 3 3 5 7 8 9
11 11 11 12 12 12 8 7 1 3 2 0 6 12 15 13 5 1 2 3 2 4 4 4 4 4 6 4 2 5 4 1 6 4 2 4 4 3 3 2 2 5 9 8 3 2 9 10 4 3 5 9 9 7 10 9 6 3 3 10 11 8 11 11 12 10 3 2 2 8 3 2 3 5 5 3 3 5 5 7 6 6 4 5 7 7 5 7
11 11 11 11 12 13 9 1 1 1 1 4 7 8 7 7 5 5 5 2 3 5 1 5 2 4 1 5 2 2 3 1 5 4 3 4 4 3 0 2 4 7 9 7 6 4 7 4 3 5 7 11 10 9 9 10 7 5 6 7 11 11 13 13 10 7 4 5 9 3 3 2 2 5 6 4 3 4 3 7 7 6 5 6 7 7 7 9
11 10 11 11 10 13 1 1 1 2 1 3 4 8 7 6 4 6 3 4 3 3 3 2 3 1 2 3 4 4 4 6 2 1 5 3 4 0 1 4 2 1 3 2 2 3 1 3 7 2 2 8 10 3 7 10 9 3 5 11 12 12 13 12 11 5 3 1 4 3 2 4 2 8 8 5 5 6 5 8 8 8 6 7 8 8 8 9
11 11 10 10 9 6 0 2 5 2 2 5 8 8 8 3 7 5 5 1 2 3 1 3 2 2 1 1 5 3 4 3 3 4 6 4 4 3 2 3 2 3 3 4 3 3 0 3 4 5 7 5 2 3 10 10 7 4 10 14 13 15 13 10 6 4 3 9 3 4 4 1 3 5 4 7 7 8 10 10 10 9 8 8 10 9 9 10
11 11 10 9 11 3 1 0 1 4 4 4 8 9 5 5 7 8 5 2 2 1 2 1 4 1 1 2 3 3 0 1 4 4 1 2 0 4 1 2 4 5 7 6 3 2 1 1 3 4 5 3 1 5 11 8 3 4 15 10 8 8 6 6 4 6 2 3 5 8 5 2 4 2 5 5 8 11 12 12 10 10 10 9 10 10 10 8
12 11 10 9 4 2 1 2 6 8 7 8 10 13 4 2 2 2 1 2 1 1 1 2 3 3 4 3 4 4 4 2 2 0 1 3 1 3 2 1 2 4 5 5 3 5 1 3 3 4 1 1 3 6 2 4 8 12 11 10 8 5 5 3 4 3 4 1 6 8 8 6 1 5 10 9 11 17 11 7 8 9 9 10 10 11 10 9
12 11 9 7 2 1 3 6 8 3 3 8 12 6 4 8 4 4 1 3 1 3 2 1 3 0 4 5 4 3 5 3 2 3 2 1 2 2 1 3 6 6 6 6 3 7 5 5 4 1 1 4 5 7 7 5 7 13 3 5 7 3 5 3 2 3 1 3 5 6 10 8 3 2 6 13 6 8 13 14 13 12 12 11 10 9 10 11
12 11 9 3 1 3 1 6 3 6 8 9 6 5 4 0 5 1 3 1 1 3 2 4 4 2 4 5 5 3 3 2 4 4 5 3 3 3 1 5 2 2 3 1 2 5 5 1 2 3 1 9 4 8 4 6 6 10 10 8 8 1 1 1 2 1 3 2 1 2 8 2 6 8 9 15 10 9 13 13 15 14 12 12 11 11 10 10
12 11 12 7 4 2 7 11 6 5 7 8 4 4 3 5 0 3 2 2 2 1 3 1 6 7 7 3 4 6 5 4 4 5 5 1 4 3 3 5 6 4 2 3 1 3 4 3 4 1 4 1 7 6 0 5 3 8 9 5 5 2 1 1 3 1 2 5 1 2 8 2 4 7 8 12 15 12 15 14 14 15 14 13 13 11 9 11
13 9 5 4 8 9 9 5 3 7 5 4 4 6 8 2 2 6 1 2 4 2 2 6 15 11 7 5 6 4 3 3 7 3 5 2 3 1 3 3 5 4 5 1 2 3 2 1 2 0 1 1 3 5 7 6 3 4 5 4 5 6 4 2 2 2 3 4 1 2 5 4 2 3 2 10 14 11 13 13 13 13 12 13 12 11 10 12
15 9 6 5 3 10 14 2 1 2 1 6 9 5 3 2 2 1 2 2 2 3 6 7 6 3 8 5 5 3 5 0 1 1 1 7 1 4 4 3 1 6 3 5 2 2 3 4 5 5 5 3 5 1 4 6 4 1 4 5 6 4 6 2 5 4 3 2 2 1 3 3 2 4 4 2 4 6 8 9 10 10 9 10 10 11 10 12
9 1 4 4 1 5 3 5 4 3 2 8 5 3 1 3 1 1 1 2 1 3 11 14 5 2 3 2 2 2 3 5 2 2 1 3 7 7 7 3 4 6 5 3 4 1 2 1 5 3 1 8 6 5 2 6 2 3 3 1 5 4 7 3 2 1 3 5 1 1 2 2 5 2 6 2 8 7 8 8 11 11 12 11 11 11 10 12
3 5 3 4 3 4 3 4 5 4 6 7 5 1 3 2 4 3 3 1 1 4 2 3 4 0 2 1 0 0 2 2 1 3 0 1 2 1 3 3 4 1 7 9 2 3 6 3 3 4 1 3 8 9 6 2 6 6 1 7 1 3 6 4 2 3 3 2 3 0 4 3 2 3 4 2 7 7 9 10 12 12 12 12 11 10 10 12
3 2 3 5 8 7 4 2 6 4 4 4 1 5 0 1 2 2 1 2 1 1 1 2 5 5 3 2 2 2 1 3 1 2 0 0 1 2 4 3 3 6 7 2 4 2 4 1 1 4 6 5 1 4 3 1 3 7 6 3 5 1 1 3 4 1 0 1 1 2 2 2 5 3 0 3 7 7 9 9 10 11 12 12 10 10 8 10
1 2 4 7 2 5 2 5 5 6 3 2 1 3 2 3 3 3 4 3 2 0 1 4 3 3 1 3 2 1 3 2 2 3 5 2 2 1 2 3 5 8 7 6 2 1 2 2 3 3 5 3 2 4 3 4 4 1 3 0 1 4 3 2 3 3 6 1 1 4 2 2 5 5 8 7 7 8 9 9 12 14 14 12 10 10 9 11
2 2 3 4 0 1 2 3 5 5 3 1 2 2 2 2 5 6 4 3 3 3 4 2 4 3 3 6 1 1 0 4 3 2 2 1 2 1 0 2 4 1 2 4 2 2 2 2 2 3 4 5 1 1 6 7 4 2 1 3 2 0 2 5 0 1 3 4 3 2 1 5 5 5 9 9 7 9 13 12 11 12 12 11 12 10 9 11
1 2 5 5 4 1 4 7 3 0 1 2 0 1 1 2 2 3 5 6 3 4 4 2 2 2 4 4 4 1 0 0 1 2 2 1 2 1 2 2 1 1 3 5 4 1 2 1 2 2 2 2 3 7 7 8 9 6 7 5 7 2 1 1 2 1 3 3 2 3 4 5 7 3 8 8 8 8 9 13 11 11 12 11 11 10 10 10
2 0 4 4 4 4 4 1 1 1 1 0 2 4 3 4 3 6 5 4 10 5 4 3 7 3 3 6 4 2 0 2 1 2 0 4 1 2 1 3 3 2 4 1 1 1 3 3 4 1 2 3 3 1 2 9 6 6 7 3 4 3 6 5 2 3 3 0 4 3 1 3 4 2 6 8 8 9 8 9 10 10 11 10 10 10 9 12
1 4 8 8 5 2 3 1 2 2 2 3 2 1 2 2 4 3 3 2 2 5 3 5 7 3 7 5 0 0 1 1 1 2 0 2 2 0 3 6 8 6 5 1 2 1 6 2 2 3 5 4 3 4 3 4 5 4 3 3 4 1 3 5 3 4 3 0 1 1 0 3 3 1 4 7 9 8 7 8 10 9 9 9 9 9 10 9
1 2 6 5 2 3 2 3 3 2 3 5 2 5 3 4 2 3 2 1 0 2 3 4 5 7 2 1 1 2 1 2 2 4 2 1 1 3 5 8 7 1 2 3 3 4 2 2 4 2 3 3 6 7 6 5 7 2 0 1 2 3 3 2 5 2 2 1 3 6 3 1 3 1 3 5 4 5 6 5 8 10 7 8 8 8 8 10
0 3 2 7 5 2 4 5 4 2 2 2 0 4 4 2 4 6 2 4 2 4 1 1 1 1 1 0 0 1 0 4 0 2 5 1 2 1 6 8 6 3 1 4 6 2 4 1 2 1 2 2 1 0 1 1 1 2 0 1 1 3 2 1 0 2 3 1 3 2 2 6 5 2 3 6 7 5 4 5 4 7 9 9 6 7 8 10
1 0 5 5 4 2 0 1 2 2 1 1 2 4 2 3 4 2 3 5 8 5 3 1 2 3 1 2 3 2 1 1 2 1 2 1 0 1 2 3 4 2 3 7 3 4 2 1 3 5 4 5 5 3 4 1 1 4 1 0 1 3 5 6 5 4 1 1 1 3 5 1 1 0 4 5 8 9 6 5 7 5 4 5 6 7 9 10
1 1 1 3 7 2 2 2 2 1 4 3 0 1 1 3 3 4 2 1 2 3 1 2 0 3 2 2 0 2 2 2 6 4 1 4 1 1 1 5 2 3 6 3 3 5 3 2 1 5 3 5 6 4 3 3 1 1 3 1 1 4 4 5 2 1 4 6 1 2 3 6 6 3 5 6 5 5 5 8 7 5 7 8 8 9 9 9
1 3 0 3 3 3 2 5 5 4 4 2 3 0 2 1 1 2 5 3 5 2 2 3 1 1 2 2 2 1 2 2 3 2 1 3 2 2 2 3 1 0 5 1 3 3 3 2 1 2 2 4 4 6 2 1 1 3 3 4 4 4 5 4 1 3 6 4 5 3 4 6 5 5 7 8 9 10 9 10 11 10 8 6 7 9 10 9
2 1 2 1 1 3 2 6 1 5 3 4 1 0 1 0 5 3 1 5 6 3 2 1 1 2 0 1 3 0 0 2 2 2 1 1 1 2 1 2 2 4 3 2 3 1 4 0 2 2 0 1 4 3 2 2 1 0 3 5 4 8 5 5 2 3 5 2 4 5 7 6 4 6 8 9 8 9 7 5 5 8 9 10 10 10 10 8
0 1 3 4 0 3 4 4 1 1 0 1 0 3 1 1 5 5 1 0 4 6 1 1 4 2 2 5 3 2 1 3 3 0 1 3 0 1 2 3 2 1 2 2 1 2 5 3 4 1 0 2 3 5 2 2 5 1 3 3 4 5 4 3 4 2 3 3 1 5 5 2 2 4 7 2 4 4 6 7 10 9 11 11 9 10 10 10
1 1 1 1 4 4 2 3 4 1 0 2 1 4 2 2 4 2 4 3 5 3 0 4 3 3 1 4 4 0 3 4 4 3 5 5 3 5 4 3 3 4 1 1 0 1 3 2 1 2 1 2 2 3 3 1 3 1 1 3 4 6 5 2 3 3 2 2 3 4 4 3 2 1 2 5 6 10 10 9 8 8 11 11 9 6 5 5
1 2 1 2 1 1 2 3 3 2 1 1 1 1 0 7 9 6 4 5 1 5 5 6 3 7 2 4 3 1 1 3 4 6 8 7 3 1 2 4 7 7 3 3 0 3 2 3 1 1 1 4 6 3 4 2 3 4 3 7 10 5 2 1 1 1 2 9 7 6 8 6 6 4 7 4 8 10 9 7 6 3 3 6 7 7 5 5
Wind_Direction
295 295 295 293 295 295 295 295 297 299 300 298 299 301 299 302 304 307 308 306 299 298 303 301 298 297 296 295 300 303 314 323 317 230 207 240 200 199 178 232 285 215 171 182 296 39 332 346 334 150 182 103 221 236 211 174 282 70 85 122 71 178 122 220 192 186 162 124 170 230 173 139 114 223 273 331 50 86 85 81 79 70 63 77 104 123 134 123
294 292 290 296 296 294 295 298 298 296 299 301 299 296 298 302 309 310 306 304 302 297 295 295 292 289 294 296 301 310 323 265 262 263 238 235 194 226 249 270 110 158 155 223 202 210 198 290 356 52 148 186 205 187 151 166 54 79 89 86 173 172 224 226 177 145 126 167 144 161 200 147 142 149 265 97 63 94 89 80 86 73 89 86 77 96 115 128
296 296 297 297 296 296 296 294 295 299 296 293 295 303 308 310 310 307 306 300 299 299 293 289 292 290 288 297 301 313 328 274 248 265 262 235 233 232 246 204 183 182 171 187 191 162 187 231 141 46 219 100 155 131 15 185 78 15 109 99 213 199 148 69 139 140 110 130 127 120 336 92 120 49 275 114 109 64 93 114 106 119 93 83 96 84 105 133
297 299 299 298 301 298 296 296 297 294 295 299 304 306 307 307 306 307 301 301 299 299 295 286 285 292 289 293 307 321 292 338 310 253 259 242 203 221 228 186 189 200 156 90 161 114 322 327 337 116 249 119 174 140 71 336 84 40 71 134 191 201 96 358 97 96 102 98 132 109 140 83 28 27 44 139 97 58 66 57 142 150 139 101 95 106 119 136
301 300 302 301 295 299 300 297 298 300 301 302 308 312 312 310 307 303 301 296 297 293 289 283 280 278 286 295 303 296 310 44 273 232 244 194 181 190 194 172 163 158 155 79 26 341 331 275 283 301 180 182 345 74 32 0 75 92 98 345 23 125 88 141 91 98 101 102 105 103 93 108 118 51 27 29 92 115 27 48 55 105 132 130 136 131 136 118
303 304 302 299 300 297 298 302 303 303 305 311 314 313 309 307 304 300 296 291 287 282 278 274 268 278 286 284 280 254 209 84 254 267 135 174 151 152 129 141 183 164 122 77 147 16 281 253 185 212 33 69 25 76 338 39 129 89 359 15 26 62 107 95 90 66 106 116 89 77 86 107 84 81 47 72 85 94 99 102 101 124 128 143 144 141 110 99
306 304 302 303 302 302 302 303 305 308 312 313 311 309 308 305 301 299 294 288 274 269 262 266 278 266 278 290 249 310 90 259 297 260 158 143 140 139 155 177 145 129 130 143 204 208 222 337 71 112 108 84 52 84 45 54 33 90 108 36 38 67 68 47 81 77 73 89 81 78 94 100 124 88 25 73 78 88 102 75 89 112 113 113 109 105 112 119
303 303 304 303 304 303 305 308 308 311 312 311 310 307 305 302 303 297 292 288 283 272 269 264 256 263 305 268 141 27 75 257 244 241 179 127 144 157 155 172 178 166 170 217 186 256 13 354 164 99 56 110 188 107 174 70 32 84 108 29 104 56 40 56 75 73 82 73 75 106 91 62 73 98 95 50 59 68 37 5 38 37 38 42 51 85 118 118
310 307 307 308 306 307 308 309 310 312 310 308 304 303 302 303 299 297 295 293 288 280 270 255 236 254 85 321 68 8 272 236 218 179 136 136 177 165 153 230 178 176 218 231 206 221 132 256 137 85 140 95 83 92 285 108 10 31 85 95 99 90 63 47 72 52 35 53 84 92 89 86 106 88 57 92 68 35 352 117 98 101 99 114 117 138 121 113
310 310 310 309 309 311 311 310 311 308 305 304 305 303 304 301 299 296 297 294 284 277 268 238 226 226 233 150 71 46 263 213 104 145 149 159 160 171 210 227 149 182 220 259 171 201 186 165 111 105 105 74 88 87 38 70 154 106 111 88 79 53 69 20 88 56 17 63 94 114 121 139 192 55 113 24 91 55 89 118 58 210 139 126 115 78 336 114
315 311 311 312 313 312 310 308 306 305 304 306 307 309 310 305 300 297 296 287 274 265 235 215 208 149 218 237 115 214 258 105 175 153 166 158 157 180 223 209 193 189 177 300 323 306 127 124 124 106 49 134 89 34 56 107 119 113 107 82 65 69 66 90 52 36 39 59 74 113 113 101 35 79 98 135 116 154 116 148 196 192 108 120 126 119 187 83
315 315 315 313 312 309 309 308 305 305 307 308 312 315 311 305 301 298 289 280 270 245 231 210 181 212 265 82 168 222 219 207 155 183 180 167 182 212 216 204 167 204 134 270 286 128 120 125 123 99 150 164 75 117 77 123 80 127 175 85 62 77 63 31 59 23 359 40 344 7 57 35 7 95 111 95 91 99 95 141 190 138 114 101 95 83 133 159
317 316 315 313 310 309 308 308 306 305 311 315 315 316 312 306 303 295 282 273 257 231 202 194 175 229 228 324 230 230 240 200 175 167 197 199 248 258 230 205 204 217 167 162 265 115 113 113 104 86 124 105 143 40 130 101 124 101 43 102 89 64 64 44 55 20 2 302 286 338 84 307 26 101 113 107 114 124 150 148 143 111 111 106 107 109 149 115
319 314 313 312 311 311 308 305 307 312 318 321 321 318 311 306 300 290 261 239 245 197 185 176 205 237 164 240 266 212 218 158 124 169 208 194 243 271 257 240 218 216 190 182 163 114 96 99 94 100 86 113 111 116 92 60 28 92 168 56 75 87 45 93 16 75 227 277 330 332 131 207 153 238 150 122 152 163 138 100 101 106 120 139 158 139 135 122
319 316 313 314 312 310 309 312 316 319 323 324 320 310 301 298 294 277 236 229 235 178 174 160 227 131 43 272 261 258 145 97 169 215 198 166 194 307 275 272 273 237 246 157 137 116 113 98 89 65 66 82 120 111 70 63 53 32 31 356 338 89 124 119 148 164 202 250 259 315 77 178 168 190 290 62 73 108 91 103 114 113 112 113 108 116 116 109
319 318 317 316 317 317 318 321 322 324 322 322 317 305 297 294 284 241 211 217 203 174 161 191 257 162 49 309 303 65 115 163 221 215 213 175 178 194 223 227 260 275 216 119 138 129 110 106 65 133 117 132 92 111 105 60 359 28 104 202 76 81 142 60 196 171 277 231 108 267 157 104 159 161 92 9 89 77 100 106 126 127 128 118 116 116 111 106
325 322 323 325 326 325 326 325 326 326 325 321 311 303 291 303 224 180 183 168 155 189 213 56 134 254 85 235 307 141 205 211 202 204 224 209 187 201 198 106 263 227 95 96 113 119 134 58 159 101 73 118 150 120 81 40 22 2 28 124 156 127 145 151 119 196 219 216 347 283 114 198 119 130 87 22 103 94 111 129 118 128 151 135 124 117 120 119
330 332 333 332 330 331 328 326 325 323 326 316 303 263 231 86 97 117 66 271 169 204 247 250 243 5 292 321 176 197 193 206 195 193 202 206 193 224 150 184 210 105 88 331 342 140 93 100 109 133 83 84 143 66 89 293 181 188 128 106 108 100 178 146 163 212 195 208 123 80 78 73 104 84 158 239 91 104 143 161 154 149 148 156 148 135 130 127
336 336 334 334 331 329 327 324 322 324 325 319 293 265 201 158 216 266 189 170 149 63 343 261 99 132 166 217 243 310 178 210 129 157 212 195 203 214 214 153 128 118 106 95 271 127 29 70 43 71 127 163 209 178 165 182 140 155 154 145 137 137 197 149 189 129 133 92 100 101 151 163 163 201 193 237 102 122 168 175 179 191 183 176 171 149 132 132
340 337 336 332 329 323 321 321 319 319 339 340 51 103 116 155 164 160 254 224 237 202 198 183 203 265 300 285 223 236 279 92 176 226 214 211 150 193 182 123 94 72 128 175 236 236 113 119 195 198 208 200 201 196 156 129 141 130 112 119 155 124 87 108 112 172 131 92 50 119 130 153 193 210 219 211 156 127 167 191 200 204 191 202 173 154 133 138
339 338 332 329 322 320 319 323 321 319 308 279 250 154 170 190 106 276 225 239 213 224 241 228 196 217 248 289 300 138 207 250 192 222 229 98 108 124 214 119 111 246 250 172 147 289 67 233 259 217 209 193 192 144 108 110 124 130 127 127 137 111 124 156 135 148 307 103 63 93 118 190 231 244 241 196 142 216 198 205 207 204 203 195 170 152 137 146
341 334 330 323 320 321 324 332 341 339 296 189 214 216 267 220 185 180 126 302 269 221 230 246 230 252 252 249 263 239 164 133 237 243 266 136 185 154 254 102 140 192 287 43 35 28 238 218 249 226 210 161 148 128 142 139 132 106 128 139 108 95 112 85 118 122 259 72 125 155 130 164 271 262 253 203 194 218 207 198 199 186 199 183 159 150 141 134
339 333 325 323 319 323 324 329 331 329 302 165 191 232 254 233 2 11 58 192 282 235 215 249 261 255 272 257 236 197 106 161 221 277 218 167 146 194 159 150 185 168 100 146 160 109 317 284 247 241 147 124 141 146 139 118 110 124 121 114 137 148 139 122 196 153 180 130 164 124 118 336 329 339 242 218 198 231 216 216 221 196 193 176 164 155 151 145
334 330 325 320 320 322 313 320 301 270 244 221 276 224 248 23 23 26 51 230 268 299 211 224 229 246 250 256 217 170 158 199 156 255 240 126 176 181 129 186 189 132 186 197 166 167 201 230 233 131 161 137 162 158 129 130 145 140 141 134 140 162 123 135 169 116 86 55 93 84 50 351 331 287 274 216 220 216 215 217 254 259 228 162 155 144 152 152
330 326 322 319 320 313 311 313 3 241 207 177 258 252 258 266 265 112 99 344 333 283 242 279 201 240 244 236 221 163 199 126 203 191 190 153 187 84 219 177 126 202 192 197 143 218 282 268 249 215 159 156 151 158 149 144 130 167 244 168 163 146 119 116 132 124 55 108 218 139 65 300 260 258 246 237 206 198 197 188 216 215 184 153 161 161 154 143
328 321 323 321 317 315 303 300 354 347 234 230 227 259 249 236 206 159 96 81 293 268 312 261 92 269 36 226 138 175 133 236 237 195 159 218 161 168 38 247 161 207 192 169 175 191 215 286 158 182 163 151 164 167 168 143 154 141 217 171 142 135 129 133 139 109 119 163 206 186 121 254 306 254 240 235 208 215 199 199 200 202 178 172 169 165 154 146
326 320 318 321 319 318 304 29 293 32 347 294 276 312 300 233 143 106 69 1 4 255 179 219 104 182 202 188 128 87 121 257 296 256 209 219 164 101 142 262 358 287 154 131 50 289 320 344 44 36 98 136 163 157 162 156 131 206 175 140 133 133 143 155 151 137 170 159 123 175 124 141 238 253 232 210 199 213 216 213 202 198 183 176 171 169 157 155
322 318 317 318 323 334 152 312 335 219 237 267 317 312 307 316 91 60 79 64 255 286 265 243 190 294 298 154 113 145 196 206 130 231 216 236 115 359 103 251 11 59 11 76 137 255 161 12 37 39 70 67 136 198 156 160 147 184 140 146 152 153 160 154 131 116 128 121 177 239 201 59 240 265 185 171 196 219 219 206 205 198 190 174 172 176 167 163
317 315 317 316 320 338 228 182 343 256 240 305 304 307 308 65 88 101 112 116 251 252 335 11 313 70 277 71 207 195 56 158 148 243 281 60 157 144 113 252 158 110 58 90 132 312 356 122 140 140 103 105 238 143 154 152 98 125 148 141 130 129 117 126 106 99 131 72 196 223 185 139 284 258 149 178 202 216 214 206 199 196 190 180 175 176 170 162
314 312 316 319 301 119 140 174 224 249 312 315 331 319 359 51 37 44 18 229 293 314 237 242 82 232 204 161 240 207 185 250 228 74 130 156 262 43 81 57 136 75 65 9 100 215 238 306 205 92 131 195 106 37 73 137 110 111 108 99 86 74 86 49 68 101 60 346 249 202 185 149 243 233 181 158 212 206 192 200 201 193 190 186 177 172 169 162
311 310 312 324 78 346 329 305 255 208 291 337 321 327 70 39 109 100 115 232 347 250 304 352 266 255 160 184 252 273 217 185 235 155 222 17 47 22 140 42 32 51 38 11 358 334 14 1 24 303 37 70 93 62 20 41 97 111 106 105 92 35 11 38 0 37 141 266 259 199 181 172 206 285 227 216 222 184 179 191 193 192 189 187 181 173 168 164
307 303 299 290 277 343 189 266 275 33 355 322 348 60 64 75 10 118 209 309 73 277 52 357 304 296 222 199 198 230 195 210 190 173 181 190 104 126 232 150 149 46 350 328 306 354 9 334 248 347 226 106 83 80 358 28 32 92 109 98 115 207 41 251 0 288 209 201 263 169 143 92 260 229 206 213 212 184 188 188 190 189 185 182 183 175 167 163
307 296 290 252 209 227 237 247 328 358 344 337 51 48 62 95 234 271 310 318 247 95 288 353 344 332 298 267 239 228 185 198 210 203 129 159 108 215 218 153 188 136 178 243 64 29 276 293 349 312 2 71 106 103 163 34 12 108 139 152 82 106 60 223 260 217 322 281 178 123 165 223 244 284 221 205 202 192 187 190 185 183 179 178 179 176 162 164
303 297 289 200 197 227 263 265 9 6 341 13 78 39 50 66 250 245 265 244 254 320 316 12 332 328 325 222 234 149 185 227 175 200 117 151 77 83 344 11 130 75 80 110 125 181 84 349 307 150 305 281 92 150 178 169 132 159 155 119 169 144 153 207 194 182 202 203 313 100 126 234 152 244 217 205 190 189 187 185 182 180 173 174 172 169 154 163
303 276 228 274 257 251 239 274 209 210 54 53 48 82 114 235 218 199 269 300 308 309 332 328 316 292 300 251 241 192 149 355 168 150 34 123 244 137 162 225 304 106 107 91 253 83 169 197 250 205 183 143 104 224 123 102 48 276 141 80 78 226 137 141 206 148 205 129 56 156 196 184 155 266 295 161 167 173 180 173 165 169 161 163 166 169 160 165
321 290 150 276 212 265 156 181 153 139 90 54 72 45 203 193 270 184 239 211 303 6 324 339 350 343 275 283 283 113 288 126 283 79 6 129 171 147 191 182 193 177 131 142 195 111 36 323 263 16 63 132 161 165 206 123 148 255 71 196 208 170 108 80 10 33 68 50 231 219 324 312 305 358 338 120 152 170 160 161 165 163 164 165 174 177 160 167
11 340 359 290 258 248 231 176 141 98 63 84 88 330 215 276 183 164 263 30 235 307 30 37 301 13 298 288 349 283 248 60 269 101 232 58 325 305 126 227 162 130 171 136 265 192 139 230 299 100 154 229 172 177 168 165 139 72 100 239 253 83 111 123 164 337 61 148 250 358 205 283 49 220 323 77 139 166 162 167 169 163 162 172 180 181 167 170
350 339 254 264 254 265 254 176 101 57 75 76 84 226 248 334 274 179 246 312 349 146 100 139 269 182 271 69 316 243 332 114 260 77 200 186 191 217 123 183 178 187 197 191 121 240 111 16 302 207 173 186 183 68 24 325 188 142 195 190 99 287 314 327 91 71 174 273 269 316 242 243 173 234 289 180 147 167 167 162 155 162 170 177 179 183 171 163
38 53 338 259 275 239 224 110 81 75 59 45 280 19 291 229 244 231 216 214 211 103 221 229 181 290 29 331 232 267 141 149 133 161 134 257 117 251 166 158 181 218 177 161 75 176 67 137 297 300 177 165 66 84 192 268 304 10 350 12 249 104 164 121 209 169 113 216 60 287 42 237 219 205 192 193 180 164 160 157 170 171 177 176 176 179 165 161
29 36 294 262 311 330 69 72 62 47 74 252 224 197 219 294 271 256 235 187 273 149 230 197 195 255 316 231 205 226 110 147 155 233 108 272 129 274 322 11 153 255 163 150 125 125 128 118 161 264 314 81 189 178 206 182 203 284 212 278 292 333 209 118 113 133 159 167 180 176 300 277 265 207 176 197 181 178 166 171 171 173 175 175 174 173 164 166
354 99 266 273 344 275 61 51 42 46 202 266 155 87 22 240 283 270 249 205 221 246 207 168 158 228 245 338 337 274 26 261 154 149 175 158 132 42 268 185 108 115 44 26 59 69 85 64 155 307 87 199 229 225 189 183 191 168 161 199 180 116 204 79 272 352 97 96 198 125 242 269 268 161 187 193 194 174 184 164 169 169 173 173 176 171 159 163
81 26 267 276 359 48 83 37 303 214 123 149 238 163 231 225 256 260 273 221 207 226 210 255 258 231 291 279 198 296 105 354 358 80 333 154 254 141 271 150 118 157 109 130 164 231 146 144 97 101 203 226 246 292 249 185 173 180 144 219 163 116 101 99 131 273 27 352 119 149 116 276 240 207 173 189 178 179 175 163 161 169 172 173 175 168 165 164
77 211 254 286 304 88 65 22 298 13 225 236 217 304 231 239 236 247 293 245 229 209 195 191 225 223 238 223 224 289 144 47 10 126 241 89 75 95 230 109 112 50 78 345 29 296 73 66 41 306 319 308 322 283 345 63 92 44 7 77 90 165 178 164 173 191 126 2 43 4 184 251 288 209 183 181 184 174 160 162 159 170 172 174 171 166 166 170
189 244 313 298 75 86 96 212 262 284 268 299 196 238 243 235 244 285 247 278 274 305 221 216 217 189 203 191 98 308 112 72 267 122 28 94 59 296 74 56 80 68 99 219 130 253 69 302 118 33 2 337 342 349 2 335 49 96 146 313 165 117 83 122 104 55 78 262 172 120 217 289 276 116 164 155 134 160 168 173 162 161 179 175 172 168 167 171
320 307 267 296 352 94 220 192 157 194 247 258 42 305 296 284 224 223 228 274 263 250 220 275 165 290 29 329 292 32 118 154 242 305 135 79 159 46 71 95 92 99 85 185 150 122 94 196 96 123 129 140 174 299 282 331 259 283 44 357 307 86 62 41 331 8 97 283 95 130 237 253 275 51 119 140 153 155 186 168 179 172 169 171 167 161 155 162
65 194 298 333 355 32 34 138 133 151 223 204 1 262 267 291 313 259 243 274 233 228 203 225 336 93 87 39 26 12 331 358 115 218 69 93 297 8 180 97 92 118 183 98 103 74 136 111 104 154 148 183 208 213 257 125 25 60 309 90 70 82 74 93 105 84 106 207 99 221 176 185 214 38 139 159 156 155 168 159 159 169 171 159 157 156 161 167
163 114 254 344 334 26 249 340 320 65 231 174 213 240 290 245 268 312 295 307 293 170 25 69 353 33 309 32 346 17 335 358 355 65 101 129 251 150 121 126 99 147 119 84 110 78 69 52 296 137 174 192 184 190 214 180 158 208 139 230 244 84 101 91 113 187 160 87 304 269 193 146 228 234 185 171 172 154 160 161 159 154 158 164 168 169 176 171
69 261 47 204 131 254 3 309 213 226 266 149 234 207 233 301 6 306 313 225 292 337 109 333 44 73 198 183 118 80 321 31 11 84 35 12 53 81 56 346 69 352 78 18 35 113 130 127 255 103 276 254 205 216 205 165 184 183 177 185 158 141 101 110 212 189 124 141 197 241 174 178 230 219 191 184 167 175 171 174 171 165 151 150 162 173 181 182
142 246 259 310 5 250 208 244 236 182 235 189 270 218 275 355 282 225 199 318 355 309 89 200 267 246 26 84 103 154 12 68 328 303 152 171 184 110 39 7 355 18 73 35 19 108 86 90 201 173 43 302 268 256 206 145 341 349 181 209 183 130 168 152 167 177 141 183 211 175 170 211 210 199 196 192 189 166 174 140 109 141 161 168 172 177 182 184
275 82 301 352 40 288 275 314 259 64 2 248 159 265 188 222 276 311 268 110 320 297 50 118 247 355 116 83 109 90 207 165 166 231 255 109 344 106 198 188 180 329 71 143 139 344 103 267 158 127 78 302 277 257 261 126 123 292 314 193 175 136 149 183 150 169 91 56 52 125 123 167 259 191 197 171 167 127 115 147 161 168 171 175 172 180 186 186
260 175 160 24 341 277 319 356 352 30 66 337 58 282 348 285 290 272 284 271 237 295 38 221 174 115 172 78 53 97 223 177 172 190 190 142 165 215 133 277 145 146 93 115 41 322 76 245 18 54 66 305 290 192 230 34 71 84 336 135 160 134 138 209 138 207 120 153 135 102 113 208 255 168 163 122 153 147 160 167 166 175 179 178 177 168 172 192
8 309 39 139 234 295 6 309 318 54 7 236 179 262 331 313 300 354 347 298 242 307 242 164 179 106 21 81 95 51 322 216 221 209 181 208 158 172 186 160 158 155 162 153 270 130 159 112 90 72 105 259 261 216 160 44 34 3 314 190 189 207 192 119 320 167 180 145 128 148 210 217 197 176 130 178 159 165 161 160 156 120 95 119 138 151 160 181